Dewpoint
25 23 21 20 20 20 19 16 18 18 17 16 15 13 9 11 15 26 30 35 36 37 42 45 43 47 45 47 50 51 50 52 51 50 50 52 52 55 55 56 58 61 62 63 65 65 65 66 66 68 70 70 71 72 71 71 71 72 71 72 72 72 73 72 71 71 70 70 71 72 68 70 69 70 70 70 71 71 72 74 73 74 73 73 73 74
24 23 21 21 19 17 19 20 20 18 15 15 12 10 10 11 15 23 33 34 37 28 45 49 45 44 47 48 49 51 49 51 51 51 52 52 52 55 56 58 57 62 64 63 66 66 64 64 68 69 69 71 70 70 71 71 72 72 73 73 73 73 73 73 73 73 72 71 69 69 67 65 64 66 67 67 69 70 71 73 73 73 73 72 73 72
24 20 20 19 18 20 16 19 19 16 14 14 14 9 7 12 16 20 31 30 35 28 42 41 40 44 45 49 50 50 49 51 51 52 52 53 54 57 57 60 62 63 63 64 66 65 65 65 66 68 68 69 69 70 71 71 71 72 72 72 73 73 72 71 71 71 72 72 72 70 69 68 67 68 68 67 69 71 72 72 72 72 73 71 71 71
21 23 21 21 21 20 20 19 18 15 14 12 13 14 11 11 10 30 28 31 40 28 43 42 37 41 49 50 51 52 50 51 53 56 52 52 55 55 57 58 60 61 64 61 62 62 64 65 67 68 69 69 69 69 70 71 71 71 72 73 73 73 70 71 71 72 71 72 73 73 72 71 68 67 69 69 69 70 70 70 70 72 72 71 70 69
20 22 18 19 19 19 16 18 17 16 13 13 13 13 10 9 10 11 31 30 34 34 31 34 40 48 49 50 50 52 51 54 53 57 58 56 56 57 59 59 62 63 64 64 66 67 65 64 67 68 69 69 68 69 70 70 70 71 72 72 72 70 69 68 70 71 72 73 72 73 72 70 70 68 68 67 67 68 69 68 69 71 72 72 70 70
20 21 20 18 19 19 15 19 18 12 11 11 16 12 12 14 11 11 23 25 28 33 33 33 33 38 49 50 50 52 51 52 54 55 59 58 59 58 56 61 62 66 67 65 67 66 65 64 67 68 68 68 67 68 70 70 70 70 68 68 69 70 69 67 69 71 71 71 70 70 68 68 68 67 67 67 67 66 68 69 70 70 70 70 71 72
20 20 20 19 20 21 15 19 20 16 14 13 16 16 14 16 13 13 12 17 33 34 34 31 31 36 46 48 49 51 52 53 53 54 57 59 59 58 59 61 61 66 66 66 67 67 63 66 67 66 68 67 67 67 68 69 68 67 68 69 69 70 70 69 70 71 71 70 70 68 66 66 66 65 68 70 69 70 70 69 70 71 72 69 71 71
21 21 17 20 21 18 14 17 19 18 14 13 17 19 16 17 16 16 14 18 23 22 33 30 31 39 46 49 49 51 50 51 53 55 57 59 58 57 59 60 63 66 66 66 67 66 64 64 66 67 69 69 69 68 69 67 66 67 67 66 68 69 70 70 70 70 70 69 69 68 67 68 65 63 67 68 68 69 68 67 67 67 68 67 68 71
20 20 20 20 20 15 17 21 21 19 14 12 15 18 19 18 18 17 16 15 18 20 25 27 26 41 40 48 50 49 50 50 53 55 56 56 57 59 60 59 62 66 65 66 66 64 65 66 67 68 69 69 66 64 64 65 65 66 68 69 69 70 70 70 70 69 69 70 69 68 66 67 67 66 66 65 65 66 67 66 66 67 66 66 66 66
21 20 16 19 19 17 20 20 19 19 17 11 11 15 19 19 18 17 17 19 23 26 27 26 25 28 41 44 46 49 47 48 49 54 55 55 54 57 59 60 65 66 65 67 68 64 65 68 69 69 68 67 64 63 66 67 67 67 68 68 69 68 69 69 69 69 69 69 69 68 68 66 67 67 68 67 66 68 66 66 65 66 67 64 61 63
20 27 25 18 17 19 20 19 18 17 16 15 15 18 17 17 18 19 22 27 26 26 29 25 22 23 42 50 43 46 45 47 47 52 53 54 53 55 58 59 65 64 65 65 66 67 66 68 69 68 68 66 64 64 66 65 66 66 67 68 68 68 69 69 68 68 68 68 68 68 67 66 66 65 65 66 65 64 65 64 62 63 64 64 61 63
18 20 18 18 21 19 19 18 17 17 16 15 15 16 16 20 25 27 32 41 33 28 29 24 24 22 27 44 46 44 48 45 47 53 54 53 54 57 59 63 64 66 66 66 67 67 65 68 68 68 68 66 64 65 64 64 65 66 66 67 67 67 68 68 68 68 67 67 67 66 66 65 66 65 64 64 63 62 64 63 63 65 66 62 61 63
17 18 19 18 25 19 19 19 18 17 15 16 16 19 14 19 29 24 26 28 30 26 25 20 22 26 34 39 42 46 46 43 43 46 53 55 58 57 61 64 64 64 65 65 66 67 67 66 66 67 67 65 64 65 65 64 64 65 66 66 66 67 68 68 68 67 67 66 66 66 65 65 66 65 64 64 63 61 63 63 62 64 64 64 63 59
16 18 16 15 14 22 20 17 16 15 16 14 16 16 17 19 21 27 30 26 23 21 21 18 19 27 38 41 43 42 43 43 46 48 55 59 57 56 63 64 64 64 65 65 67 65 66 65 66 66 66 65 64 63 64 64 65 65 64 66 66 67 67 67 67 66 65 65 65 66 65 64 64 64 63 62 62 60 63 63 63 62 62 64 59 57
12 13 15 15 13 16 19 18 16 14 14 14 13 12 16 19 17 23 21 19 17 18 15 10 14 42 31 48 43 47 48 51 51 54 56 54 55 63 63 64 64 65 66 66 65 65 65 66 66 67 65 64 64 64 64 66 67 65 65 66 66 66 65 65 65 65 65 65 64 65 66 65 64 64 62 63 64 64 62 62 59 63 60 58 60 64
11 11 10 15 13 14 15 18 18 14 12 13 10 12 14 16 19 17 17 15 16 11 11 18 25 37 46 50 51 51 48 48 52 56 57 59 60 64 64 63 63 64 65 65 65 64 65 66 65 67 64 65 64 65 65 66 66 65 66 66 66 66 65 65 64 64 65 65 66 65 65 64 63 64 62 64 64 64 63 61 61 59 61 61 60 63
11 8 7 6 11 10 11 15 16 16 12 10 11 11 9 13 12 16 15 14 14 13 18 20 39 46 48 50 49 51 51 50 50 54 56 59 60 63 63 63 62 64 64 64 64 64 64 65 65 64 62 62 62 63 65 65 65 66 65 65 66 65 64 64 64 64 64 65 64 64 64 62 61 57 57 56 57 57 60 63 60 57 58 58 61 61
6 4 6 9 7 10 10 12 14 15 13 10 10 8 10 14 14 16 12 19 12 13 18 13 36 39 39 41 52 52 53 53 53 52 55 58 61 63 63 64 64 64 65 65 65 64 64 64 64 60 59 59 63 65 66 66 65 65 65 64 63 63 63 62 63 63 64 63 63 62 61 60 60 57 57 59 57 58 60 61 59 60 57 60 61 61
6 5 9 8 6 9 12 12 10 12 14 11 8 10 9 15 15 22 15 13 14 17 20 20 35 36 39 46 50 52 53 53 56 56 56 56 59 62 63 64 64 65 65 64 64 64 64 64 65 58 57 60 64 65 65 65 65 65 63 62 63 63 63 62 62 63 63 63 61 61 59 57 58 59 59 60 59 59 59 56 57 57 60 61 61 62
11 8 8 8 8 10 11 10 11 9 10 12 13 10 10 11 11 14 15 21 21 14 9 17 38 38 44 44 43 50 53 55 57 57 56 58 62 63 62 63 63 63 64 65 64 63 63 63 61 59 61 61 62 63 64 64 65 65 64 64 64 64 63 61 62 62 62 62 61 60 61 61 61 62 60 58 57 53 54 55 58 60 57 60 60 60
10 20 9 8 3 6 9 12 11 10 8 7 8 10 10 10 11 12 10 13 10 14 16 14 16 47 52 53 52 48 54 57 57 58 59 59 61 64 63 63 63 64 65 64 65 63 63 63 60 60 61 63 65 65 64 64 64 64 63 60 58 59 56 59 59 60 61 63 59 59 59 59 59 58 59 57 54 53 53 57 58 57 59 61 62 59
13 10 10 7 5 3 6 7 8 8 7 4 4 7 8 8 9 11 14 8 8 10 18 17 31 51 54 56 54 56 58 58 59 59 59 60 61 63 62 62 62 63 64 63 64 63 64 63 64 64 64 65 65 65 64 64 65 64 60 57 56 55 55 56 55 59 60 58 59 56 55 57 58 57 57 57 59 55 54 53 56 57 59 56 60 60
12 6 6 5 5 2 3 8 8 7 8 6 3 2 7 7 8 11 17 16 11 9 8 22 39 40 55 58 59 56 58 58 59 58 58 60 63 63 62 63 64 64 63 62 63 64 63 64 64 64 65 65 65 65 66 65 64 61 59 58 59 58 56 54 54 56 59 58 57 53 55 57 57 54 54 57 58 57 55 52 54 57 58 57 57 57
43 6 4 4 6 5 5 4 8 5 5 6 3 1 -2 -1 5 5 9 13 12 13 13 24 42 48 51 55 59 59 58 57 61 59 59 60 62 63 63 64 65 64 64 63 63 63 64 65 65 64 65 65 66 66 66 66 65 62 59 57 55 56 55 55 53 56 58 56 52 51 51 51 54 58 56 57 57 57 56 56 55 56 57 59 58 57
6 16 11 10 14 14 9 11 7 10 9 9 7 8 7 5 7 8 8 13 13 34 23 27 35 45 54 57 58 57 57 56 58 59 59 61 62 63 63 64 64 64 64 64 64 64 64 64 65 65 65 65 65 65 66 65 64 63 59 55 54 54 53 54 56 52 53 57 54 53 54 53 57 58 57 57 57 56 55 55 53 54 53 56 55 57
5 7 18 8 15 16 12 15 16 19 15 14 15 12 11 7 10 10 8 16 18 37 37 39 45 53 54 56 56 56 56 57 56 57 59 62 62 63 63 63 63 63 63 64 64 64 64 64 65 64 64 65 65 65 65 64 61 59 57 56 55 55 54 53 53 52 52 50 52 57 56 56 57 56 57 56 55 55 54 54 55 55 54 55 56 56
10 9 15 21 19 21 23 27 20 23 17 16 14 11 7 4 2 11 13 19 15 35 46 49 45 50 53 55 55 54 55 55 56 57 58 60 62 63 64 63 63 63 63 63 64 64 64 63 64 65 65 64 65 65 66 61 59 58 60 59 56 56 55 54 54 57 53 51 51 55 54 53 53 55 55 54 54 54 55 53 53 54 55 56 56 54
31 17 16 18 17 15 13 21 20 23 19 18 17 17 14 14 16 16 15 22 41 24 43 48 51 52 52 53 53 54 55 56 55 56 59 60 62 63 63 64 64 63 63 63 63 63 63 62 63 63 64 64 64 65 62 61 58 60 59 57 57 55 56 56 55 55 55 56 53 54 51 54 52 53 56 56 57 55 53 52 54 54 55 56 55 52
18 17 16 15 14 12 10 16 19 18 18 18 18 18 19 19 30 27 27 30 38 37 43 49 50 51 52 53 54 53 55 56 57 59 61 62 62 63 63 62 63 63 63 62 63 63 63 63 63 63 63 64 64 64 62 60 60 60 59 58 57 54 55 57 56 56 52 55 56 55 55 56 53 53 54 57 56 55 54 53 53 55 55 55 53 51
27 16 17 16 18 15 13 15 18 17 18 19 19 20 19 17 29 30 31 31 38 43 49 50 49 47 49 51 52 54 55 55 58 59 60 61 62 63 62 62 63 62 62 62 62 62 62 63 63 63 63 63 63 62 60 60 60 59 57 56 56 57 57 58 57 56 56 56 54 56 57 57 57 56 54 54 54 55 54 54 54 53 53 53 53 52
20 22 28 17 19 15 12 14 15 15 16 19 20 20 22 25 28 30 29 32 46 47 50 52 52 55 58 56 56 57 57 57 59 59 60 61 61 62 61 62 62 62 61 61 62 62 62 63 63 63 63 63 62 60 61 60 58 56 55 55 56 57 56 57 58 56 53 55 56 58 58 57 56 57 56 55 54 55 55 55 54 55 54 53 52 54
19 17 19 21 18 15 14 16 17 17 17 17 35 37 42 26 28 29 33 39 44 45 47 51 53 55 56 55 56 56 57 58 58 59 59 60 60 62 62 61 61 61 61 61 62 62 62 62 62 62 62 62 61 59 59 58 56 55 55 57 54 56 56 56 56 55 56 56 57 57 57 56 57 56 55 56 55 55 55 54 54 54 53 52 51 52
21 18 22 23 20 20 22 22 20 20 18 26 35 35 35 29 31 32 41 42 39 40 43 43 49 57 55 55 56 57 57 57 59 59 57 56 59 60 61 61 61 60 61 61 60 61 62 62 62 63 63 60 59 58 57 56 54 55 57 54 52 55 53 54 55 56 55 56 55 57 57 57 56 56 55 55 55 55 55 55 53 52 52 52 51 53
28 19 20 27 25 25 20 22 24 22 29 43 37 40 37 31 32 39 42 41 45 49 51 52 54 56 55 55 55 55 55 57 56 56 57 58 58 57 59 60 60 60 61 61 61 61 62 62 62 60 59 58 56 54 54 55 55 54 54 55 56 54 56 56 56 55 54 55 55 56 57 56 56 55 56 55 56 55 54 54 54 51 51 53 54 54
21 23 21 40 23 24 27 26 25 24 43 37 43 43 38 37 36 45 42 44 46 49 51 52 53 55 55 55 56 56 56 57 58 58 58 58 59 59 61 61 60 60 61 61 60 61 62 62 60 58 56 55 55 56 54 55 54 55 54 53 55 53 54 53 54 54 55 52 55 56 55 56 55 56 56 55 54 55 53 53 54 54 54 52 51 53
18 18 24 28 22 25 24 25 24 45 46 44 43 44 39 36 37 42 42 47 48 50 53 53 54 57 58 57 57 59 59 59 59 59 60 59 60 63 59 60 60 60 60 61 61 62 60 58 58 57 56 57 54 54 54 53 53 55 54 54 53 54 54 54 54 53 54 56 55 55 57 56 55 55 56 55 54 53 53 55 55 54 54 53 53 50
23 28 24 31 39 28 27 43 37 41 41 37 39 46 45 40 43 43 40 46 50 53 55 56 57 56 58 58 57 59 59 58 59 59 58 61 59 60 60 60 60 61 61 60 60 60 59 59 57 57 57 55 54 54 54 55 54 54 53 52 51 52 51 53 53 52 54 56 55 56 56 56 55 55 54 54 55 55 55 55 56 55 54 53 52 51
42 35 32 37 45 44 36 34 34 35 33 38 42 43 46 43 40 43 49 50 53 54 55 56 55 56 57 57 57 57 58 59 58 58 59 60 59 59 59 61 60 60 60 59 58 57 56 56 55 55 54 54 54 55 54 52 55 54 53 51 52 54 52 53 52 51 52 54 55 55 56 55 56 55 54 54 54 53 54 55 55 54 54 55 54 53
27 41 44 32 43 40 36 40 35 37 39 47 44 48 47 44 40 42 50 51 57 55 56 57 56 56 56 56 56 57 55 52 54 57 60 60 60 60 59 61 59 57 57 56 55 53 53 53 53 53 53 53 53 52 53 54 53 53 51 50 51 53 52 51 53 51 55 55 54 56 55 54 54 55 55 54 54 54 54 54 54 54 55 56 55 54
40 29 30 25 21 41 42 34 41 42 45 45 46 46 44 44 44 39 34 47 55 55 56 55 54 54 57 58 54 56 53 50 53 57 58 59 60 59 58 58 57 57 55 52 51 51 53 55 52 51 50 49 50 49 52 52 55 50 51 52 51 50 52 53 52 53 56 55 53 53 56 55 56 54 54 54 54 55 54 55 55 55 55 56 54 53
32 42 29 24 30 32 37 36 41 41 48 47 45 45 44 42 41 36 38 50 54 52 52 55 54 54 55 56 54 54 55 56 57 57 57 57 58 57 57 57 55 53 51 49 48 55 53 52 49 46 47 49 50 50 52 51 52 52 53 53 52 51 52 53 54 54 53 55 54 54 54 55 54 55 55 54 55 56 55 56 56 56 54 54 53 54
42 43 42 38 38 41 32 35 33 42 50 46 48 45 49 41 39 47 53 54 52 51 53 52 51 56 55 54 55 56 55 56 57 57 56 57 56 56 54 52 49 47 47 51 53 50 44 43 46 47 46 47 46 48 52 52 51 54 54 52 51 51 54 52 54 56 55 55 54 53 54 55 56 54 52 54 55 55 55 55 55 53 54 53 54 52
49 45 41 30 40 35 38 36 32 36 50 46 47 48 55 52 52 53 53 51 49 51 53 56 57 55 53 53 54 55 56 56 56 55 56 55 54 53 50 48 48 47 47 46 44 44 43 45 45 44 44 45 46 48 51 52 52 54 53 52 51 53 53 53 52 54 55 55 53 53 53 54 53 54 51 51 53 53 51 55 55 55 54 53 53 54
52 49 45 44 46 36 36 39 43 49 53 54 54 52 53 54 54 53 51 49 50 51 51 52 54 53 51 51 51 53 56 56 56 55 55 54 51 48 48 48 48 46 44 43 43 43 44 45 46 49 48 49 51 51 54 54 54 53 53 52 53 53 51 54 55 53 53 52 52 50 53 53 53 53 52 53 54 55 52 54 55 53 52 55 55 52
52 49 53 49 50 50 49 51 52 53 52 52 51 50 52 53 52 51 51 51 51 51 53 52 52 50 52 53 54 55 55 56 56 55 52 50 48 47 47 47 47 45 43 42 41 45 46 45 47 49 49 50 51 54 56 54 54 53 52 52 54 53 51 50 50 52 50 50 49 53 51 54 53 51 53 51 52 53 53 51 54 55 56 55 54 54
46 49 55 51 49 50 50 51 51 49 46 44 46 47 47 48 50 49 48 50 51 53 52 51 49 49 50 50 49 53 55 55 53 51 50 48 47 46 48 46 45 45 44 44 45 46 46 45 46 46 47 50 52 54 55 54 53 53 52 54 53 53 52 49 51 50 48 50 52 50 53 51 54 53 54 54 55 54 56 52 55 57 56 57 53 53
45 47 47 49 50 48 45 52 50 49 49 49 49 50 50 48 51 52 52 52 52 51 50 49 50 51 50 50 50 51 51 51 49 49 48 47 46 45 46 46 46 45 45 46 46 48 46 45 47 48 48 47 50 51 53 53 53 53 54 55 49 49 52 50 52 51 51 49 51 53 53 53 54 55 54 54 55 54 54 56 54 52 56 53 55 53
45 48 48 48 51 51 50 51 51 51 51 49 49 50 49 50 50 51 51 51 52 51 48 49 48 47 48 47 49 51 50 48 48 48 47 46 45 45 46 46 47 47 47 47 47 47 46 46 45 47 48 51 52 52 52 53 53 52 52 49 46 48 51 48 48 45 47 42 49 51 50 51 48 50 54 55 54 51 52 52 49 53 56 56 53 55
60 51 48 55 54 50 51 51 50 50 50 50 50 50 50 49 49 48 49 48 47 48 49 48 47 46 46 47 52 51 46 44 47 47 44 44 45 45 46 46 48 47 48 49 50 50 50 50 47 48 51 52 52 53 53 54 54 51 52 50 52 51 51 49 52 45 44 48 51 51 50 49 49 52 53 53 53 55 57 53 50 50 52 52 61 58
50 47 48 46 48 49 51 50 49 47 47 48 48 48 49 49 48 47 47 46 46 47 48 45 46 45 44 43 45 44 42 43 44 46 43 44 45 46 48 47 47 46 47 48 49 47 47 48 49 50 50 53 53 53 53 52 53 52 49 52 51 51 51 52 49 51 53 52 52 48 47 51 49 49 52 50 56 53 53 51 53 55 54 55 54 54
53 53 47 43 45 47 50 49 53 51 50 48 47 47 48 47 47 46 47 47 46 46 45 43 41 43 43 43 43 42 43 44 42 42 43 43 46 48 47 48 47 47 47 47 47 47 48 46 49 51 50 52 53 53 53 51 50 53 49 48 53 51 53 51 54 52 49 51 45 47 48 47 49 52 55 54 54 53 52 50 55 43 46 50 56 52